Year,Month,Day,Hour,Minute,Value (Times are PST for temperature in C)
2017,06,27,00,00,14.10
2017,06,27,00,01,14.10
2017,06,27,00,02,14.10
2017,06,27,00,03,14.10
2017,06,27,00,04,14.20
2017,06,27,00,05,14.20
2017,06,27,00,06,14.20
2017,06,27,00,07,14.20
2017,06,27,00,08,14.30
2017,06,27,00,09,14.30
2017,06,27,00,10,14.30
2017,06,27,00,11,14.30
2017,06,27,00,12,14.30
2017,06,27,00,13,14.30
2017,06,27,00,14,14.30
2017,06,27,00,15,14.30
2017,06,27,00,16,14.40
2017,06,27,00,17,14.40
2017,06,27,00,18,14.40
2017,06,27,00,19,14.30
2017,06,27,00,20,14.30
2017,06,27,00,21,14.30
2017,06,27,00,22,14.30
2017,06,27,00,23,14.30
2017,06,27,00,24,14.30
2017,06,27,00,25,14.40
2017,06,27,00,26,14.40
2017,06,27,00,27,14.40
2017,06,27,00,28,14.40
2017,06,27,00,29,14.30
2017,06,27,00,30,14.30
2017,06,27,00,31,14.30
2017,06,27,00,32,14.30
2017,06,27,00,33,14.30
2017,06,27,00,34,14.30
2017,06,27,00,35,14.20
2017,06,27,00,36,14.20
2017,06,27,00,37,14.10
2017,06,27,00,38,14.10
2017,06,27,00,39,14.00
2017,06,27,00,40,14.00
2017,06,27,00,41,13.90
2017,06,27,00,42,13.90
2017,06,27,00,43,13.80
2017,06,27,00,44,13.80
2017,06,27,00,45,13.80
2017,06,27,00,46,13.70
2017,06,27,00,47,13.70
2017,06,27,00,48,13.70
2017,06,27,00,49,13.70
2017,06,27,00,50,13.60
2017,06,27,00,51,13.60
2017,06,27,00,52,13.60
2017,06,27,00,53,13.60
2017,06,27,00,54,13.50
2017,06,27,00,55,13.50
2017,06,27,00,56,13.50
2017,06,27,00,57,13.40
2017,06,27,00,58,13.40
2017,06,27,00,59,13.40
2017,06,27,01,00,13.40
2017,06,27,01,01,13.40
2017,06,27,01,02,13.40
2017,06,27,01,03,13.30
2017,06,27,01,04,13.30
2017,06,27,01,05,13.30
2017,06,27,01,06,13.30
2017,06,27,01,07,13.30
2017,06,27,01,08,13.30
2017,06,27,01,09,13.30
2017,06,27,01,10,13.30
2017,06,27,01,11,13.20
2017,06,27,01,12,13.20
2017,06,27,01,13,13.20
2017,06,27,01,14,13.20
2017,06,27,01,15,13.20
2017,06,27,01,16,13.20
2017,06,27,01,17,13.10
2017,06,27,01,18,13.10
2017,06,27,01,19,13.10
2017,06,27,01,20,13.10
2017,06,27,01,21,13.10
2017,06,27,01,22,13.10
2017,06,27,01,23,13.10
2017,06,27,01,24,13.10
2017,06,27,01,25,13.00
2017,06,27,01,26,13.00
2017,06,27,01,27,13.00
2017,06,27,01,28,13.00
2017,06,27,01,29,13.00
2017,06,27,01,30,13.00
2017,06,27,01,31,13.00
2017,06,27,01,32,12.90
2017,06,27,01,33,12.90
2017,06,27,01,34,12.90
2017,06,27,01,35,12.90
2017,06,27,01,36,12.90
2017,06,27,01,37,12.90
2017,06,27,01,38,12.90
2017,06,27,01,39,12.90
2017,06,27,01,40,12.90
2017,06,27,01,41,12.90
2017,06,27,01,42,12.90
2017,06,27,01,43,12.90
2017,06,27,01,44,12.80
2017,06,27,01,45,12.80
2017,06,27,01,46,12.80
2017,06,27,01,47,12.80
2017,06,27,01,48,12.80
2017,06,27,01,49,12.80
2017,06,27,01,50,12.80
2017,06,27,01,51,12.80
2017,06,27,01,52,12.70
2017,06,27,01,53,12.70
2017,06,27,01,54,12.70
2017,06,27,01,55,12.70
2017,06,27,01,56,12.70
2017,06,27,01,57,12.70
2017,06,27,01,58,12.70
2017,06,27,01,59,12.70
2017,06,27,02,00,12.60
2017,06,27,02,01,12.60
2017,06,27,02,02,12.60
2017,06,27,02,03,12.60
2017,06,27,02,04,12.50
2017,06,27,02,05,12.50
2017,06,27,02,06,12.50
2017,06,27,02,07,12.50
2017,06,27,02,08,12.40
2017,06,27,02,09,12.40
2017,06,27,02,10,12.40
2017,06,27,02,11,12.40
2017,06,27,02,12,12.40
2017,06,27,02,13,12.30
2017,06,27,02,14,12.30
2017,06,27,02,15,12.30
2017,06,27,02,16,12.30
2017,06,27,02,17,12.30
2017,06,27,02,18,12.30
2017,06,27,02,19,12.30
2017,06,27,02,20,12.30
2017,06,27,02,21,12.30
2017,06,27,02,22,12.30
2017,06,27,02,23,12.20
2017,06,27,02,24,12.20
2017,06,27,02,25,12.20
2017,06,27,02,26,12.20
2017,06,27,02,27,12.20
2017,06,27,02,28,12.10
2017,06,27,02,29,12.10
2017,06,27,02,30,12.10
2017,06,27,02,31,12.10
2017,06,27,02,32,12.10
2017,06,27,02,33,12.10
2017,06,27,02,34,12.00
2017,06,27,02,35,12.00
2017,06,27,02,36,11.90
2017,06,27,02,37,11.90
2017,06,27,02,38,11.90
2017,06,27,02,39,11.90
2017,06,27,02,40,11.90
2017,06,27,02,41,11.90
2017,06,27,02,42,11.90
2017,06,27,02,43,11.90
2017,06,27,02,44,11.90
2017,06,27,02,45,11.90
2017,06,27,02,46,11.90
2017,06,27,02,47,11.90
2017,06,27,02,48,11.90
2017,06,27,02,49,11.90
2017,06,27,02,50,11.90
2017,06,27,02,51,11.90
2017,06,27,02,52,11.90
2017,06,27,02,53,11.90
2017,06,27,02,54,11.90
2017,06,27,02,55,11.80
2017,06,27,02,56,11.80
2017,06,27,02,57,11.80
2017,06,27,02,58,11.80
2017,06,27,02,59,11.80
2017,06,27,03,00,11.80
2017,06,27,03,01,11.80
2017,06,27,03,02,11.80
2017,06,27,03,03,11.80
2017,06,27,03,04,11.80
2017,06,27,03,05,11.80
2017,06,27,03,06,11.80
2017,06,27,03,07,11.70
2017,06,27,03,08,11.70
2017,06,27,03,09,11.70
2017,06,27,03,10,11.70
2017,06,27,03,11,11.60
2017,06,27,03,12,11.60
2017,06,27,03,13,11.60
2017,06,27,03,14,11.60
2017,06,27,03,15,11.60
2017,06,27,03,16,11.60
2017,06,27,03,17,11.60
2017,06,27,03,18,11.60
2017,06,27,03,19,11.60
2017,06,27,03,20,11.60
2017,06,27,03,21,11.60
2017,06,27,03,22,11.60
2017,06,27,03,23,11.50
2017,06,27,03,24,11.50
2017,06,27,03,25,11.40
2017,06,27,03,26,11.40
2017,06,27,03,27,11.40
2017,06,27,03,28,11.40
2017,06,27,03,29,11.40
2017,06,27,03,30,11.40
2017,06,27,03,31,11.30
2017,06,27,03,32,11.30
2017,06,27,03,33,11.30
2017,06,27,03,34,11.30
2017,06,27,03,35,11.30
2017,06,27,03,36,11.30
2017,06,27,03,37,11.30
2017,06,27,03,38,11.30
2017,06,27,03,39,11.30
2017,06,27,03,40,11.30
2017,06,27,03,41,11.30
2017,06,27,03,42,11.30
2017,06,27,03,43,11.30
2017,06,27,03,44,11.30
2017,06,27,03,45,11.30
2017,06,27,03,46,11.30
2017,06,27,03,47,11.30
2017,06,27,03,48,11.30
2017,06,27,03,49,11.30
2017,06,27,03,50,11.40
2017,06,27,03,51,11.40
2017,06,27,03,52,11.40
2017,06,27,03,53,11.40
2017,06,27,03,54,11.50
2017,06,27,03,55,11.50
2017,06,27,03,56,11.40
2017,06,27,03,57,11.40
2017,06,27,03,58,11.40
2017,06,27,03,59,11.40
2017,06,27,04,00,11.40
2017,06,27,04,01,11.30
2017,06,27,04,02,11.30
2017,06,27,04,03,11.30
2017,06,27,04,04,11.30
2017,06,27,04,05,11.30
2017,06,27,04,06,11.30
2017,06,27,04,07,11.30
2017,06,27,04,08,11.30
2017,06,27,04,09,11.30
2017,06,27,04,10,11.30
2017,06,27,04,11,11.30
2017,06,27,04,12,11.30
2017,06,27,04,13,11.30
2017,06,27,04,14,11.30
2017,06,27,04,15,11.30
2017,06,27,04,16,11.30
2017,06,27,04,17,11.30
2017,06,27,04,18,11.30
2017,06,27,04,19,11.30
2017,06,27,04,20,11.30
2017,06,27,04,21,11.30
2017,06,27,04,22,11.30
2017,06,27,04,23,11.30
2017,06,27,04,24,11.30
2017,06,27,04,25,11.20
2017,06,27,04,26,11.20
2017,06,27,04,27,11.20
2017,06,27,04,28,11.20
2017,06,27,04,29,11.20
2017,06,27,04,30,11.20
2017,06,27,04,31,11.20
2017,06,27,04,32,11.20
2017,06,27,04,33,11.20
2017,06,27,04,34,11.20
2017,06,27,04,35,11.20
2017,06,27,04,36,11.20
2017,06,27,04,37,11.20
2017,06,27,04,38,11.20
2017,06,27,04,39,11.20
2017,06,27,04,40,11.20
2017,06,27,04,41,11.20
2017,06,27,04,42,11.20
2017,06,27,04,43,11.20
2017,06,27,04,44,11.20
2017,06,27,04,45,11.20
2017,06,27,04,46,11.20
2017,06,27,04,47,11.20
2017,06,27,04,48,11.20
2017,06,27,04,49,11.20
2017,06,27,04,50,11.30
2017,06,27,04,51,11.30
2017,06,27,04,52,11.30
2017,06,27,04,53,11.30
2017,06,27,04,54,11.30
2017,06,27,04,55,11.30
2017,06,27,04,56,11.30
2017,06,27,04,57,11.20
2017,06,27,04,58,11.20
2017,06,27,04,59,11.20
2017,06,27,05,00,11.20
2017,06,27,05,01,11.20
2017,06,27,05,02,11.20
2017,06,27,05,03,11.20
2017,06,27,05,04,11.20
2017,06,27,05,05,11.20
2017,06,27,05,06,11.20
2017,06,27,05,07,11.20
2017,06,27,05,08,11.20
2017,06,27,05,09,11.20
2017,06,27,05,10,11.20
2017,06,27,05,11,11.20
2017,06,27,05,12,11.10
2017,06,27,05,13,11.10
2017,06,27,05,14,11.10
2017,06,27,05,15,11.10
2017,06,27,05,16,11.10
2017,06,27,05,17,11.10
2017,06,27,05,18,11.10
2017,06,27,05,19,11.10
2017,06,27,05,20,11.10
2017,06,27,05,21,11.10
2017,06,27,05,22,11.10
2017,06,27,05,23,11.10
2017,06,27,05,24,11.10
2017,06,27,05,25,11.10
2017,06,27,05,26,11.10
2017,06,27,05,27,11.10
2017,06,27,05,28,11.20
2017,06,27,05,29,11.20
2017,06,27,05,30,11.10
2017,06,27,05,31,11.20
2017,06,27,05,32,11.20
2017,06,27,05,33,11.20
2017,06,27,05,34,11.20
2017,06,27,05,35,11.20
2017,06,27,05,36,11.20
2017,06,27,05,37,11.20
2017,06,27,05,38,11.20
2017,06,27,05,39,11.20
2017,06,27,05,40,11.20
2017,06,27,05,41,11.20
2017,06,27,05,42,11.20
2017,06,27,05,43,11.20
2017,06,27,05,44,11.20
2017,06,27,05,45,11.20
2017,06,27,05,46,11.20
2017,06,27,05,47,11.20
2017,06,27,05,48,11.20
2017,06,27,05,49,11.20
2017,06,27,05,50,11.20
2017,06,27,05,51,11.20
2017,06,27,05,52,11.20
2017,06,27,05,53,11.20
2017,06,27,05,54,11.20
2017,06,27,05,55,11.20
2017,06,27,05,56,11.20
2017,06,27,05,57,11.20
2017,06,27,05,58,11.20
2017,06,27,05,59,11.20
2017,06,27,06,00,11.20
2017,06,27,06,01,11.20
2017,06,27,06,02,11.20
2017,06,27,06,03,11.20
2017,06,27,06,04,11.20
2017,06,27,06,05,11.30
2017,06,27,06,06,11.30
2017,06,27,06,07,11.30
2017,06,27,06,08,11.30
2017,06,27,06,09,11.30
2017,06,27,06,10,11.30
2017,06,27,06,11,11.30
2017,06,27,06,12,11.30
2017,06,27,06,13,11.30
2017,06,27,06,14,11.30
2017,06,27,06,15,11.40
2017,06,27,06,16,11.40
2017,06,27,06,17,11.40
2017,06,27,06,18,11.50
2017,06,27,06,19,11.50
2017,06,27,06,20,11.50
2017,06,27,06,21,11.50
2017,06,27,06,22,11.50
2017,06,27,06,23,11.60
2017,06,27,06,24,11.60
2017,06,27,06,25,11.60
2017,06,27,06,26,11.60
2017,06,27,06,27,11.70
2017,06,27,06,28,11.70
2017,06,27,06,29,11.70
2017,06,27,06,30,11.70
2017,06,27,06,31,11.80
2017,06,27,06,32,11.80
2017,06,27,06,33,11.80
2017,06,27,06,34,11.90
2017,06,27,06,35,11.90
2017,06,27,06,36,11.90
2017,06,27,06,37,11.90
2017,06,27,06,38,11.90
2017,06,27,06,39,12.00
2017,06,27,06,40,12.00
2017,06,27,06,41,12.00
2017,06,27,06,42,12.10
2017,06,27,06,43,12.10
2017,06,27,06,44,12.10
2017,06,27,06,45,12.10
2017,06,27,06,46,12.10
2017,06,27,06,47,12.20
2017,06,27,06,48,12.20
2017,06,27,06,49,12.20
2017,06,27,06,50,12.30
2017,06,27,06,51,12.30
2017,06,27,06,52,12.30
2017,06,27,06,53,12.40
2017,06,27,06,54,12.40
2017,06,27,06,55,12.50
2017,06,27,06,56,12.50
2017,06,27,06,57,12.60
2017,06,27,06,58,12.60
2017,06,27,06,59,12.70
2017,06,27,07,00,12.70
2017,06,27,07,01,12.80
2017,06,27,07,02,12.90
2017,06,27,07,03,13.00
2017,06,27,07,04,13.00
2017,06,27,07,05,13.10
2017,06,27,07,06,13.20
2017,06,27,07,07,13.30
2017,06,27,07,08,13.40
2017,06,27,07,09,13.40
2017,06,27,07,10,13.50
2017,06,27,07,11,13.60
2017,06,27,07,12,13.70
2017,06,27,07,13,13.80
2017,06,27,07,14,13.80
2017,06,27,07,15,13.80
2017,06,27,07,16,13.90
2017,06,27,07,17,13.90
2017,06,27,07,18,14.00
2017,06,27,07,19,14.00
2017,06,27,07,20,14.10
2017,06,27,07,21,14.10
2017,06,27,07,22,14.10
2017,06,27,07,23,14.20
2017,06,27,07,24,14.20
2017,06,27,07,25,14.20
2017,06,27,07,26,14.20
2017,06,27,07,27,14.20
2017,06,27,07,28,14.30
2017,06,27,07,29,14.30
2017,06,27,07,30,14.40
2017,06,27,07,31,14.50
2017,06,27,07,32,14.50
2017,06,27,07,33,14.60
2017,06,27,07,34,14.60
2017,06,27,07,35,14.60
2017,06,27,07,36,14.60
2017,06,27,07,37,14.70
2017,06,27,07,38,14.70
2017,06,27,07,39,14.70
2017,06,27,07,40,14.80
2017,06,27,07,41,14.80
2017,06,27,07,42,14.80
2017,06,27,07,43,14.90
2017,06,27,07,44,14.90
2017,06,27,07,45,15.00
2017,06,27,07,46,15.00
2017,06,27,07,47,15.00
2017,06,27,07,48,15.10
2017,06,27,07,49,15.10
2017,06,27,07,50,15.20
2017,06,27,07,51,15.20
2017,06,27,07,52,15.20
2017,06,27,07,53,15.20
2017,06,27,07,54,15.20
2017,06,27,07,55,15.20
2017,06,27,07,56,15.30
2017,06,27,07,57,15.30
2017,06,27,07,58,15.40
2017,06,27,07,59,15.50
2017,06,27,08,00,15.50
2017,06,27,08,01,15.60
2017,06,27,08,02,15.60
2017,06,27,08,03,15.60
2017,06,27,08,04,15.60
2017,06,27,08,05,15.60
2017,06,27,08,06,15.50
2017,06,27,08,07,15.40
2017,06,27,08,08,15.40
2017,06,27,08,09,15.30
2017,06,27,08,10,15.30
2017,06,27,08,11,15.30
2017,06,27,08,12,15.30
2017,06,27,08,13,15.20
2017,06,27,08,14,15.20
2017,06,27,08,15,15.10
2017,06,27,08,16,15.10
2017,06,27,08,17,15.00
2017,06,27,08,18,14.90
2017,06,27,08,19,14.90
2017,06,27,08,20,14.90
2017,06,27,08,21,14.90
2017,06,27,08,22,14.90
2017,06,27,08,23,14.90
2017,06,27,08,24,14.90
2017,06,27,08,25,14.90
2017,06,27,08,26,14.90
2017,06,27,08,27,14.90
2017,06,27,08,28,14.90
2017,06,27,08,29,14.90
2017,06,27,08,30,14.80
2017,06,27,08,31,14.80
2017,06,27,08,32,14.80
2017,06,27,08,33,14.70
2017,06,27,08,34,14.70
2017,06,27,08,35,14.70
2017,06,27,08,36,14.70
2017,06,27,08,37,14.70
2017,06,27,08,38,14.60
2017,06,27,08,39,14.60
2017,06,27,08,40,14.60
2017,06,27,08,41,14.70
2017,06,27,08,42,14.70
2017,06,27,08,43,14.80
2017,06,27,08,44,14.80
2017,06,27,08,45,14.90
2017,06,27,08,46,15.00
2017,06,27,08,47,15.10
2017,06,27,08,48,15.10
2017,06,27,08,49,15.20
2017,06,27,08,50,15.20
2017,06,27,08,51,15.20
2017,06,27,08,52,15.20
2017,06,27,08,53,15.20
2017,06,27,08,54,15.20
2017,06,27,08,55,15.20
2017,06,27,08,56,15.30
2017,06,27,08,57,15.30
2017,06,27,08,58,15.30
2017,06,27,08,59,15.40
2017,06,27,09,00,15.40
2017,06,27,09,01,15.50
2017,06,27,09,02,15.60
2017,06,27,09,03,15.60
2017,06,27,09,04,15.60
2017,06,27,09,05,15.50
2017,06,27,09,06,15.50
2017,06,27,09,07,15.40
2017,06,27,09,08,15.40
2017,06,27,09,09,15.30
2017,06,27,09,10,15.30
2017,06,27,09,11,15.30
2017,06,27,09,12,15.30
2017,06,27,09,13,15.40
2017,06,27,09,14,15.50
2017,06,27,09,15,15.50
2017,06,27,09,16,15.60
2017,06,27,09,17,15.60
2017,06,27,09,18,15.60
2017,06,27,09,19,15.60
2017,06,27,09,20,15.60
2017,06,27,09,21,15.60
2017,06,27,09,22,15.60
2017,06,27,09,23,15.60
2017,06,27,09,24,15.70
2017,06,27,09,25,15.70
2017,06,27,09,26,15.70
2017,06,27,09,27,15.60
2017,06,27,09,28,15.60
2017,06,27,09,29,15.50
2017,06,27,09,30,15.40
2017,06,27,09,31,15.40
2017,06,27,09,32,15.30
2017,06,27,09,33,15.30
2017,06,27,09,34,15.20
2017,06,27,09,35,15.20
2017,06,27,09,36,15.20
2017,06,27,09,37,15.20
2017,06,27,09,38,15.30
2017,06,27,09,39,15.30
2017,06,27,09,40,15.30
2017,06,27,09,41,15.30
2017,06,27,09,42,15.30
2017,06,27,09,43,15.30
2017,06,27,09,44,15.30
2017,06,27,09,45,15.30
2017,06,27,09,46,15.30
2017,06,27,09,47,15.20
2017,06,27,09,48,15.20
2017,06,27,09,49,15.20
2017,06,27,09,50,15.10
2017,06,27,09,51,15.10
2017,06,27,09,52,15.10
2017,06,27,09,53,15.10
2017,06,27,09,54,15.10
2017,06,27,09,55,15.10
2017,06,27,09,56,15.20
2017,06,27,09,57,15.20
2017,06,27,09,58,15.20
2017,06,27,09,59,15.20
2017,06,27,10,00,15.20
2017,06,27,10,01,15.20
2017,06,27,10,02,15.20
2017,06,27,10,03,15.20
2017,06,27,10,04,15.20
2017,06,27,10,05,15.20
2017,06,27,10,06,15.20
2017,06,27,10,07,15.20
2017,06,27,10,08,15.20
2017,06,27,10,09,15.30
2017,06,27,10,10,15.30
2017,06,27,10,11,15.40
2017,06,27,10,12,15.40
2017,06,27,10,13,15.40
2017,06,27,10,14,15.40
2017,06,27,10,15,15.40
2017,06,27,10,16,15.40
2017,06,27,10,17,15.40
2017,06,27,10,18,15.30
2017,06,27,10,19,15.20
2017,06,27,10,20,15.20
2017,06,27,10,21,15.20
2017,06,27,10,22,15.20
2017,06,27,10,23,15.10
2017,06,27,10,24,15.10
2017,06,27,10,25,15.10
2017,06,27,10,26,15.00
2017,06,27,10,27,15.00
2017,06,27,10,28,15.00
2017,06,27,10,29,15.00
2017,06,27,10,30,15.00
2017,06,27,10,31,14.90
2017,06,27,10,32,14.90
2017,06,27,10,33,14.80
2017,06,27,10,34,14.80
2017,06,27,10,35,14.90
2017,06,27,10,36,14.90
2017,06,27,10,37,14.90
2017,06,27,10,38,14.80
2017,06,27,10,39,14.80
2017,06,27,10,40,14.80
2017,06,27,10,41,14.80
2017,06,27,10,42,14.70
2017,06,27,10,43,14.70
2017,06,27,10,44,14.60
2017,06,27,10,45,14.60
2017,06,27,10,46,14.60
2017,06,27,10,47,14.60
2017,06,27,10,48,14.60
2017,06,27,10,49,14.60
2017,06,27,10,50,14.70
2017,06,27,10,51,14.80
2017,06,27,10,52,14.80
2017,06,27,10,53,14.80
2017,06,27,10,54,14.70
2017,06,27,10,55,14.70
2017,06,27,10,56,14.70
2017,06,27,10,57,14.70
2017,06,27,10,58,14.70
2017,06,27,10,59,14.70
2017,06,27,11,00,14.80
2017,06,27,11,01,14.90
2017,06,27,11,02,14.90
2017,06,27,11,03,14.90
2017,06,27,11,04,14.90
2017,06,27,11,05,14.90
2017,06,27,11,06,14.80
2017,06,27,11,07,14.80
2017,06,27,11,08,14.80
2017,06,27,11,09,14.90
2017,06,27,11,10,14.90
2017,06,27,11,11,14.90
2017,06,27,11,12,15.00
2017,06,27,11,13,15.10
2017,06,27,11,14,15.10
2017,06,27,11,15,15.10
2017,06,27,11,16,15.10
2017,06,27,11,17,15.10
2017,06,27,11,18,15.10
2017,06,27,11,19,15.00
2017,06,27,11,20,15.00
2017,06,27,11,21,15.00
2017,06,27,11,22,15.10
2017,06,27,11,23,15.10
2017,06,27,11,24,15.20
2017,06,27,11,25,15.20
2017,06,27,11,26,15.20
2017,06,27,11,27,15.20
2017,06,27,11,28,15.20
2017,06,27,11,29,15.20
2017,06,27,11,30,15.30
2017,06,27,11,31,15.30
2017,06,27,11,32,15.30
2017,06,27,11,33,15.20
2017,06,27,11,34,15.20
2017,06,27,11,35,15.20
2017,06,27,11,36,15.20
2017,06,27,11,37,15.10
2017,06,27,11,38,15.00
2017,06,27,11,39,15.00
2017,06,27,11,40,14.90
2017,06,27,11,41,15.00
2017,06,27,11,42,15.00
2017,06,27,11,43,15.10
2017,06,27,11,44,15.10
2017,06,27,11,45,15.20
2017,06,27,11,46,15.20
2017,06,27,11,47,15.20
2017,06,27,11,48,15.20
2017,06,27,11,49,15.30
2017,06,27,11,50,15.30
2017,06,27,11,51,15.30
2017,06,27,11,52,15.20
2017,06,27,11,53,15.20
2017,06,27,11,54,15.20
2017,06,27,11,55,15.30
2017,06,27,11,56,15.30
2017,06,27,11,57,15.40
2017,06,27,11,58,15.40
2017,06,27,11,59,15.40
2017,06,27,12,00,15.50
2017,06,27,12,01,15.50
2017,06,27,12,02,15.50
2017,06,27,12,03,15.60
2017,06,27,12,04,15.60
2017,06,27,12,05,15.50
2017,06,27,12,06,15.50
2017,06,27,12,07,15.40
2017,06,27,12,08,15.40
2017,06,27,12,09,15.40
2017,06,27,12,10,15.40
2017,06,27,12,11,15.40
2017,06,27,12,12,15.40
2017,06,27,12,13,15.40
2017,06,27,12,14,15.40
2017,06,27,12,15,15.40
2017,06,27,12,16,15.40
2017,06,27,12,17,15.50
2017,06,27,12,18,15.50
2017,06,27,12,19,15.60
2017,06,27,12,20,15.60
2017,06,27,12,21,15.70
2017,06,27,12,22,15.70
2017,06,27,12,23,15.70
2017,06,27,12,24,15.70
2017,06,27,12,25,15.80
2017,06,27,12,26,15.80
2017,06,27,12,27,15.70
2017,06,27,12,28,15.70
2017,06,27,12,29,15.70
2017,06,27,12,30,15.70
2017,06,27,12,31,15.80
2017,06,27,12,32,15.80
2017,06,27,12,33,15.80
2017,06,27,12,34,15.80
2017,06,27,12,35,15.70
2017,06,27,12,36,15.70
2017,06,27,12,37,15.70
2017,06,27,12,38,15.60
2017,06,27,12,39,15.60
2017,06,27,12,40,15.60
2017,06,27,12,41,15.70
2017,06,27,12,42,15.70
2017,06,27,12,43,15.80
2017,06,27,12,44,15.90
2017,06,27,12,45,15.90
2017,06,27,12,46,16.00
2017,06,27,12,47,16.10
2017,06,27,12,48,16.10
2017,06,27,12,49,16.10
2017,06,27,12,50,16.20
2017,06,27,12,51,16.30
2017,06,27,12,52,16.40
2017,06,27,12,53,16.60
2017,06,27,12,54,16.70
2017,06,27,12,55,16.80
2017,06,27,12,56,16.80
2017,06,27,12,57,16.70
2017,06,27,12,58,16.70
2017,06,27,12,59,16.70
2017,06,27,13,00,16.70
2017,06,27,13,01,16.70
2017,06,27,13,02,16.60
2017,06,27,13,03,16.60
2017,06,27,13,04,16.50
2017,06,27,13,05,16.50
2017,06,27,13,06,16.50
2017,06,27,13,07,16.40
2017,06,27,13,08,16.30
2017,06,27,13,09,16.30
2017,06,27,13,10,16.30
2017,06,27,13,11,16.20
2017,06,27,13,12,16.20
2017,06,27,13,13,16.20
2017,06,27,13,14,16.10
2017,06,27,13,15,16.10
2017,06,27,13,16,16.00
2017,06,27,13,17,16.00
2017,06,27,13,18,15.90
2017,06,27,13,19,15.90
2017,06,27,13,20,15.90
2017,06,27,13,21,16.00
2017,06,27,13,22,16.00
2017,06,27,13,23,16.00
2017,06,27,13,24,16.00
2017,06,27,13,25,16.10
2017,06,27,13,26,16.10
2017,06,27,13,27,16.20
2017,06,27,13,28,16.30
2017,06,27,13,29,16.40
2017,06,27,13,30,16.40
2017,06,27,13,31,16.40
2017,06,27,13,32,16.30
2017,06,27,13,33,16.30
2017,06,27,13,34,16.30
2017,06,27,13,35,16.20
2017,06,27,13,36,16.20
2017,06,27,13,37,16.20
2017,06,27,13,38,16.10
2017,06,27,13,39,16.10
2017,06,27,13,40,16.10
2017,06,27,13,41,16.10
2017,06,27,13,42,16.10
2017,06,27,13,43,16.00
2017,06,27,13,44,16.00
2017,06,27,13,45,16.00
2017,06,27,13,46,16.00
2017,06,27,13,47,16.00
2017,06,27,13,48,16.10
2017,06,27,13,49,16.10
2017,06,27,13,50,16.10
2017,06,27,13,51,16.10
2017,06,27,13,52,16.10
2017,06,27,13,53,16.20
2017,06,27,13,54,16.20
2017,06,27,13,55,16.20
2017,06,27,13,56,16.30
2017,06,27,13,57,16.30
2017,06,27,13,58,16.20
2017,06,27,13,59,16.10
2017,06,27,14,00,16.10
2017,06,27,14,01,16.10
2017,06,27,14,02,16.10
2017,06,27,14,03,16.10
2017,06,27,14,04,16.20
2017,06,27,14,05,16.20
2017,06,27,14,06,16.30
2017,06,27,14,07,16.30
2017,06,27,14,08,16.50
2017,06,27,14,09,16.60
2017,06,27,14,10,16.70
2017,06,27,14,11,16.80
2017,06,27,14,12,16.80
2017,06,27,14,13,16.90
2017,06,27,14,14,17.00
2017,06,27,14,15,17.10
2017,06,27,14,16,17.20
2017,06,27,14,17,17.20
2017,06,27,14,18,17.30
2017,06,27,14,19,17.40
2017,06,27,14,20,17.40
2017,06,27,14,21,17.40
2017,06,27,14,22,17.30
2017,06,27,14,23,17.30
2017,06,27,14,24,17.30
2017,06,27,14,25,17.20
2017,06,27,14,26,17.20
2017,06,27,14,27,17.30
2017,06,27,14,28,17.40
2017,06,27,14,29,17.60
2017,06,27,14,30,17.70
2017,06,27,14,31,17.80
2017,06,27,14,32,17.80
2017,06,27,14,33,17.90
2017,06,27,14,34,17.90
2017,06,27,14,35,17.80
2017,06,27,14,36,17.70
2017,06,27,14,37,17.70
2017,06,27,14,38,17.70
2017,06,27,14,39,17.80
2017,06,27,14,40,17.80
2017,06,27,14,41,17.80
2017,06,27,14,42,17.70
2017,06,27,14,43,17.70
2017,06,27,14,44,17.70
2017,06,27,14,45,17.70
2017,06,27,14,46,17.80
2017,06,27,14,47,17.80
2017,06,27,14,48,17.90
2017,06,27,14,49,18.00
2017,06,27,14,50,18.00
2017,06,27,14,51,18.10
2017,06,27,14,52,18.10
2017,06,27,14,53,18.20
2017,06,27,14,54,18.30
2017,06,27,14,55,18.50
2017,06,27,14,56,18.60
2017,06,27,14,57,18.60
2017,06,27,14,58,18.70
2017,06,27,14,59,18.70
2017,06,27,15,00,18.70
2017,06,27,15,01,18.70
2017,06,27,15,02,18.70
2017,06,27,15,03,18.70
2017,06,27,15,04,18.70
2017,06,27,15,05,18.70
2017,06,27,15,06,18.80
2017,06,27,15,07,18.80
2017,06,27,15,08,18.80
2017,06,27,15,09,18.80
2017,06,27,15,10,18.80
2017,06,27,15,11,18.80
2017,06,27,15,12,18.80
2017,06,27,15,13,18.70
2017,06,27,15,14,18.70
2017,06,27,15,15,18.70
2017,06,27,15,16,18.70
2017,06,27,15,17,18.70
2017,06,27,15,18,18.60
2017,06,27,15,19,18.60
2017,06,27,15,20,18.60
2017,06,27,15,21,18.60
2017,06,27,15,22,18.60
2017,06,27,15,23,18.60
2017,06,27,15,24,18.60
2017,06,27,15,25,18.70
2017,06,27,15,26,18.70
2017,06,27,15,27,18.80
2017,06,27,15,28,18.90
2017,06,27,15,29,18.90
2017,06,27,15,30,18.90
2017,06,27,15,31,18.80
2017,06,27,15,32,18.80
2017,06,27,15,33,18.90
2017,06,27,15,34,18.90
2017,06,27,15,35,18.90
2017,06,27,15,36,19.00
2017,06,27,15,37,19.00
2017,06,27,15,38,19.00
2017,06,27,15,39,19.00
2017,06,27,15,40,19.10
2017,06,27,15,41,19.10
2017,06,27,15,42,19.20
2017,06,27,15,43,19.20
2017,06,27,15,44,19.20
2017,06,27,15,45,19.20
2017,06,27,15,46,19.30
2017,06,27,15,47,19.30
2017,06,27,15,48,19.30
2017,06,27,15,49,19.30
2017,06,27,15,50,19.20
2017,06,27,15,51,19.20
2017,06,27,15,52,19.10
2017,06,27,15,53,19.10
2017,06,27,15,54,19.10
2017,06,27,15,55,19.20
2017,06,27,15,56,19.20
2017,06,27,15,57,19.20
2017,06,27,15,58,19.20
2017,06,27,15,59,19.20
2017,06,27,16,00,19.30
2017,06,27,16,01,19.40
2017,06,27,16,02,19.50
2017,06,27,16,03,19.50
2017,06,27,16,04,19.50
2017,06,27,16,05,19.60
2017,06,27,16,06,19.60
2017,06,27,16,07,19.50
2017,06,27,16,08,19.50
2017,06,27,16,09,19.40
2017,06,27,16,10,19.40
2017,06,27,16,11,19.50
2017,06,27,16,12,19.50
2017,06,27,16,13,19.40
2017,06,27,16,14,19.40
2017,06,27,16,15,19.40
2017,06,27,16,16,19.40
2017,06,27,16,17,19.40
2017,06,27,16,18,19.30
2017,06,27,16,19,19.30
2017,06,27,16,20,19.30
2017,06,27,16,21,19.30
2017,06,27,16,22,19.20
2017,06,27,16,23,19.20
2017,06,27,16,24,19.20
2017,06,27,16,25,19.20
2017,06,27,16,26,19.30
2017,06,27,16,27,19.40
2017,06,27,16,28,19.50
2017,06,27,16,29,19.60
2017,06,27,16,30,19.70
2017,06,27,16,31,19.90
2017,06,27,16,32,20.00
2017,06,27,16,33,20.00
2017,06,27,16,34,20.10
2017,06,27,16,35,20.00
2017,06,27,16,36,19.90
2017,06,27,16,37,19.80
2017,06,27,16,38,19.80
2017,06,27,16,39,19.80
2017,06,27,16,40,20.00
2017,06,27,16,41,20.10
2017,06,27,16,42,20.10
2017,06,27,16,43,20.20
2017,06,27,16,44,20.20
2017,06,27,16,45,20.20
2017,06,27,16,46,20.20
2017,06,27,16,47,20.20
2017,06,27,16,48,20.20
2017,06,27,16,49,20.20
2017,06,27,16,50,20.20
2017,06,27,16,51,20.20
2017,06,27,16,52,20.20
2017,06,27,16,53,20.20
2017,06,27,16,54,20.20
2017,06,27,16,55,20.20
2017,06,27,16,56,20.20
2017,06,27,16,57,20.20
2017,06,27,16,58,20.30
2017,06,27,16,59,20.20
2017,06,27,17,00,20.10
2017,06,27,17,01,20.10
2017,06,27,17,02,20.10
2017,06,27,17,03,20.10
2017,06,27,17,04,20.30
2017,06,27,17,05,20.30
2017,06,27,17,06,20.30
2017,06,27,17,07,20.20
2017,06,27,17,08,20.20
2017,06,27,17,09,20.20
2017,06,27,17,10,20.20
2017,06,27,17,11,20.20
2017,06,27,17,12,20.10
2017,06,27,17,13,20.10
2017,06,27,17,14,20.00
2017,06,27,17,15,20.00
2017,06,27,17,16,19.90
2017,06,27,17,17,19.90
2017,06,27,17,18,19.90
2017,06,27,17,19,19.90